Location: Bacharowice
(49.9333°N, 19.5833°E)
Time: 23:56:27
(UTC+00:00)

Cosmos 2084 - Pass Details

Date: 11 May 2021
Orbit: 541 x 640 km, 62.8° (Epoch: 21 June)

Event Time Altitude Azimuth Distance (km) Brightness Sun altitude
Rises 20:02:25 0° 227° (SW) 2,714 6.8 -13.8°
Reaches altitude 10° 20:04:35 10° 229° (SW) 1,834 5.9 -14.0°
Maximum altitude 20:08:43 76° 316° (NW) 588 3.5 -14.4°
Drops below altitude 10° 20:13:00 10° 42° (NE) 1,899 6.2 -14.8°
Sets 20:15:17 0° 44° (NE) 2,820 7.1 -15.0°
